This is the latest recevied weather packets stored in our database for station/object IN3MWE-10. If no packets are shown the sender has not sent any weather packets the latest 10 day(s).
| Time | Temp. | Humidity | Pressure | Rain* | Wind** | Luminosity | Snow |
|---|---|---|---|---|---|---|---|
| 1777458018 | 16.11° C | 76% | 984 hPa | - | - | - | - |
| 1777457118 | 15.56° C | 73% | 983.8 hPa | - | - | - | - |
| 1777456218 | 15.56° C | 72% | 983.9 hPa | - | - | - | - |
| 1777455318 | 16.11° C | 73% | 983.8 hPa | - | - | - | - |
| 1777454417 | 15.56° C | 76% | 983.8 hPa | - | - | - | - |
| 1777453517 | 15° C | 78% | 983.7 hPa | - | - | - | - |
| 1777452617 | 14.44° C | 80% | 983.8 hPa | - | - | - | - |
| 1777451717 | 14.44° C | 80% | 983.7 hPa | - | - | - | - |
| 1777450816 | 13.89° C | 82% | 983.8 hPa | - | - | - | - |
| 1777449916 | 13.89° C | 84% | 983.7 hPa | - | - | - | - |
| 1777449016 | 13.89° C | 84% | 983.6 hPa | - | - | - | - |
| 1777448116 | 13.89° C | 84% | 983.5 hPa | - | - | - | - |
| 1777447215 | 13.89° C | 85% | 983.4 hPa | - | - | - | - |
| 1777446315 | 13.89° C | 85% | 983.4 hPa | - | - | - | - |
| 1777445415 | 13.89° C | 86% | 983.2 hPa | - | - | - | - |
| 1777444515 | 13.89° C | 86% | 983.3 hPa | - | - | - | - |
| 1777443615 | 13.33° C | 87% | 983.2 hPa | - | - | - | - |
| 1777442715 | 13.89° C | 85% | 983.1 hPa | - | - | - | - |
| 1777441815 | 13.33° C | 86% | 983 hPa | - | - | - | - |
| 1777440915 | 13.33° C | 85% | 983 hPa | - | - | - | - |
| 1777440014 | 13.33° C | 85% | 982.9 hPa | - | - | - | - |
| 1777439114 | 12.78° C | 87% | 982.8 hPa | - | - | - | - |
| 1777438214 | 12.78° C | 86% | 982.7 hPa | - | - | - | - |
| 1777437314 | 12.78° C | 86% | 982.8 hPa | - | - | - | - |
| 1777436414 | 13.33° C | 86% | 982.8 hPa | - | - | - | - |
* Rain since midnight (hover to see other rain measurements)
** Current wind speed in m/s (hover to see current wind gust speed)